Flag for Guyana Weather past 2 weeks in Linden, Guyana

Now
75 °F

Rain showers. Passing clouds.


Feels Like: 74 °F
Forecast: 72 / 82 °F
Wind: 9 mph from East

Location: Georgetown/Cheddi Jagan International Airport

Current Time: Jan 29, 2015 at 8:41:33 PM

Latest Report: Jan 29, 2015 at 8:00 PM


Visibility: 4 mi

Pressure: 29.89 "Hg

Humidity: 94%

Dew point: 73 °F

Location of LindenLocation

Historic Weather in Linden — Graph

°F

Linden temperature yesterday

Maximum temperature yesterday: 88 °F (at 1:00 PM)
Minimum temperature yesterday: 73 °F (at 9:00 PM)
Average temperature yesterday: 79 °F

Past Weeks' High & Low Weather Summary

 TemperatureHumidityPressure
High90 °F (Jan 24, 1:00 AM)100% (Jan 14, 7:00 PM)30.01 "Hg (Jan 14, 7:00 PM)
Low68 °F (Jan 23, 6:00 AM)49% (Jan 23, 2:00 PM)29.83 "Hg (Jan 19, 3:00 PM)
Average78 °F84%29.91 "Hg
* Reported Jan 14 7:00 PM — Jan 29 7:00 PM, Linden, Weather by CustomWeather, © 2014

Note: Actual official high and low records may vary slightly from our data, if they occured in-between our weather recording intervals... More about our weather records

Advertising

Linden weather history for previous 24 hours

 ConditionsComfort  
Time TempWeatherWind HumidityBarometerVisibility
7:00 PM
Jan 29
77 °FPassing clouds.7 mph89%29.86 "HgN/A
6:00 PM79 °FScattered clouds.9 mph84%29.86 "HgN/A
5:00 PM81 °FPartly sunny.9 mph79%29.83 "HgN/A
4:00 PM82 °FPartly sunny.9 mph74%29.83 "HgN/A
3:00 PM81 °FScattered clouds.9 mph79%29.83 "HgN/A
2:00 PM81 °FPartly sunny.7 mph89%29.86 "HgN/A
1:00 PM79 °FRain showers. Broken clouds.5 mph89%29.89 "Hg4 mi
12:00 PM81 °FPartly sunny.7 mph84%29.92 "Hg6 mi
11:00 AM81 °FBroken clouds.No wind84%29.95 "HgN/A
10:00 AM79 °FBroken clouds.5 mph79%29.98 "Hg6 mi
9:00 AM75 °FBroken clouds.No wind89%29.98 "HgN/A
8:00 AM72 °FLight rain. More clouds than sun.5 mph100%29.95 "Hg6 mi
7:00 AM70 °FHeavy rain. Cloudy.9 mph100%29.92 "Hg1 mi
6:00 AM68 °FLight rain. Overcast.7 mph100%29.89 "Hg4 mi
5:00 AM70 °FRain showers. Partly cloudy.7 mph94%29.89 "Hg5 mi
4:00 AM72 °FPartly cloudy.No wind100%29.86 "Hg6 mi
3:00 AM70 °FPartly cloudy.No wind100%29.86 "Hg6 mi
2:00 AM72 °FPassing clouds.No wind94%29.86 "HgN/A
1:00 AM72 °FPassing clouds.No wind100%29.89 "HgN/A
12:00 AM72 °FPartly cloudy.5 mph100%29.89 "Hg6 mi
10:00 PM
Jan 28
73 °FPassing clouds.5 mph94%29.89 "HgN/A
9:00 PM73 °FClear.5 mph94%29.89 "Hg10 mi
8:00 PM75 °FClear.5 mph89%29.89 "Hg10 mi
Weather by CustomWeather, © 2014

See weather overviewHow to use our weather pages